STARLINK-11648, 63313

Orbit data source: Space-Track

STARLINK-11648, 63313 is a payload satellite owned by SpaceX/Seattle (US) in LEO that was launched on Tue, 18 Mar 2025 UTC via an FALCON 9 launch vehicle from the Air Force Eastern Test Range (AFETR). Payload-class satellites include a variety of spacecraft equipped with specific instruments for various scientific and technological missions. These include communications satellites like Starlink; space stations such as the ISS; scientific satellites like the Hubble; Earth observation satellites from companies like Planet Labs, Umbra, and HawkEye 360; GPS; miniature CubeSats for education and research; and military/defense satellites.

Loading next visibility...
Identifier
63313, 2025-057G
Orbit
LEO
Country
Flag of USUS
Related business
Manufacturer
SpaceX/Seattle
Mission
Operational Commercial Communications
Bus & Motor
STARLINK V2MD, Unknown motor
Mass
960 kg wet, ~910 kg dry
Launch date (UTC)
2025-03-18 (11 months ago)
Launch vehicle
FALCON 9
Launch site
Air Force Eastern Test Range (AFETR)
Object type
Payload
Rocket body
Debris
Shape & HBR
Box + 2 Pan, 18.1 m
Radar Cross Section
36.964 m², Large (>1 m²)

Expand to show TLE details & history
Last TLE update: 1 day ago

TLE from 1 day ago
0 STARLINK-11648
1 63313U 25057G   26036.56883219  .00161102  00000-0  12314-2 0  9998
2 63313  42.9994  98.3420 0001217 291.2526  68.8211 15.70906038 52124
Epoch: 2026-02-05T13:39Z
TLE epoch observation values (Epoch: 2026-02-05T13:39:07.101Z)
Latitude
-0.00005°
Longitude
117.84318°
Altitude
355.781 km
Speed
7.698 km/s
True Right ascension
06h 33m 22s
True Declination
0° 00' 00"
Sunlit
Object was in full shadow at epoch
Visualization orbit readout
Latitude
Unknown
Longitude
Unknown
Altitude
Unknown
Speed
Unknown
Apparent Right ascension
Unknown
Apparent Declination
Unknown
Sunlit
N/A
Visualization observer readout
Local Sidereal Time
15:24:48
Azimuth
Unknown
Elevation
Unknown
Doppler factor
Unknown
Orbital elements
Apogee altitude
359.108 km
Perigee altitude
357.468 km
Semi-major axis
6,736.425 km
Eccentricity
0.00012
Inclination
42.9994°
RAAN
98.342°
Arg. of periapsis
291.2526°
True anomaly
68.8341°
Mean anomaly
68.8211°
Eccentric anomaly
68.8276°
Mean motion
3.92554 °/min
Orbital period
91.71 mins
BSTAR
0.0012314
Loading maneuver chart data...
Computing Atmospheric mass density...
Loading historical data...
Loading historical data...
Loading historical data...
Loading historical data...
Loading historical data...
Loading historical data...
Loading historical data...

Documentation

Showing up to 5 results
|